• Processing (Info)

  • MPEC 2000-L27 : 2000 LF6

    The following Minor Planet Electronic Circular may be linked-to from your own Web pages, but must not otherwise be redistributed electronically.

    A form allowing access to any MPEC is at the bottom of this page.


    Read MPEC 2000-L26 Read MPEC 2000-L28


    M.P.E.C. 2000-L27                                Issued 2000 June 7, 20:42 UT
    
         The Minor Planet Electronic Circulars contain information on unusual
             minor planets and routine data on comets.  They are published
       on behalf of Commission 20 of the International Astronomical Union by the
              Minor Planet Center, Smithsonian Astrophysical Observatory,
                              Cambridge, MA 02138, U.S.A.
    
                 Prepared using the Tamkin Foundation Computer Network
    
                 BMARSDEN@CFA.HARVARD.EDU or GWILLIAMS@CFA.HARVARD.EDU
              URL http://cfa-www.harvard.edu/iau/mpc.html  ISSN 1523-6714
    
                                       2000 LF6
    
    Observations:
         K00L06F* C2000 06 03.31135 14 07 48.49 +25 22 07.2          18.0 R      699
         K00L06F  C2000 06 03.32399 14 07 50.65 +25 21 02.4                      699
         K00L06F  C2000 06 03.33666 14 07 52.90 +25 19 56.3                      699
         K00L06F  C2000 06 03.34933 14 07 54.99 +25 18 50.1                      699
         K00L06F  C2000 06 04.20859 14 10 34.29 +24 04 10.7          18.0 R      699
         K00L06F  C2000 06 04.22122 14 10 36.45 +24 03 03.8                      699
         K00L06F 4C2000 06 04.22936 14 10 37.99 +24 02 19.8                      673
         K00L06F 4C2000 06 04.23087 14 10 38.26 +24 02 11.7                      673
         K00L06F 4C2000 06 04.23234 14 10 38.52 +24 02 03.8                      673
         K00L06F  C2000 06 04.23393 14 10 38.60 +24 01 56.3                      699
         K00L06F  C2000 06 04.24661 14 10 40.72 +24 00 49.1                      699
         K00L06F  C2000 06 04.53978 14 11 35.73 +23 34 43.7                      344
         K00L06F  C2000 06 04.54144 14 11 36.03 +23 34 34.3                      344
         K00L06F  C2000 06 04.54303 14 11 36.29 +23 34 26.1                      344
         K00L06F  C2000 06 04.60368 14 11 46.40 +23 28 59.8          17.8 V      402
         K00L06F  C2000 06 04.60494 14 11 46.74 +23 28 52.4                      402
         K00L06F  C2000 06 04.60622 14 11 46.82 +23 28 46.6                      402
         K00L06F  C2000 06 04.60958 14 11 47.48 +23 28 27.5                      402
         K00L06F  C2000 06 04.87384 14 12 37.87 +23 04 31.8                      557
         K00L06F  C2000 06 04.87701 14 12 38.49 +23 04 15.4                      557
         K00L06F  C2000 06 04.87808 14 12 38.67 +23 04 10.0                      557
         K00L06F  C2000 06 04.92523 14 12 46.81 +22 59 55.0                      595
         K00L06F  C2000 06 04.93175 14 12 48.12 +22 59 20.7          18.1 V      595
         K00L06F  C2000 06 04.93508 14 12 48.65 +22 59 00.6                      595
         K00L06F  C2000 06 04.94672 14 12 50.68 +22 57 55.5          17.5 R      046
         K00L06F  C2000 06 04.94771 14 12 50.93 +22 57 48.0                      046
         K00L06F  C2000 06 04.94839 14 12 50.94 +22 57 45.4                      118
         K00L06F  C2000 06 04.94866 14 12 51.10 +22 57 44.5                      046
         K00L06F  C2000 06 04.95051 14 12 51.37 +22 57 34.1                      046
         K00L06F  C2000 06 04.95141 14 12 51.63 +22 57 29.9                      046
         K00L06F  C2000 06 04.95229 14 12 51.76 +22 57 24.7          17.4 R      046
         K00L06F  C2000 06 04.95231 14 12 51.70 +22 57 25.7                      118
         K00L06F  C2000 06 04.95507 14 12 52.11 +22 57 09.7                      118
         K00L06F  C2000 06 05.28763 14 13 54.55 +22 27 01.7          18.5 V      651
         K00L06F  C2000 06 05.28926 14 13 54.84 +22 26 52.6          18.3 V      651
         K00L06F  C2000 06 05.29018 14 13 55.01 +22 26 47.4          18.3 V      651
         K00L06F  C2000 06 05.87919 14 15 47.81 +21 32 05.9          17.4 R      046
         K00L06F  C2000 06 05.88024 14 15 48.08 +21 31 59.9                      046
         K00L06F  C2000 06 05.88117 14 15 48.18 +21 31 55.6                      046
         K00L06F  C2000 06 05.88207 14 15 48.37 +21 31 50.2                      046
    
    Observer details:
    046 Klet.  Observers J. Ticha, M. Tichy, Z. Moravec.  0.57-m f/5.2 reflector
        + CCD.
    118 Modra.  Observers A. Galad, L. Kornos, P. Koleny.  0.6-m f/5.5 reflector
        + CCD.
    344 Bohyunsan Optical Astronomy Observatory.  Observer M.-Y. Chun.  1.8-m f/8
        reflector + CCD.
    402 Dynic Astronomical Observatory.  Observer A. Sugie.  0.60-m f/3.7 reflector
        + CCD.
    557 Ondrejov.  Observer L. Sarounova.  0.65-m f/3.6 reflector + CCD.
    595 Farra d'Isonzo.  Observers G. Lombardi, E. Pettarin.  0.40-m f/4.5
        reflector + CCD.
    651 Grasslands Observatory, Tucson.  Observer J. E. McGaha.  0.62-m f/5.1
        reflector + CCD.
    673 Table Mountain Observatory, Wrightwood.  Observers M. Hicks, C. Ramirez.
        0.6-m reflector + CCD.
    699 Lowell Observatory-LONEOS.  Observer B. A. Skiff.  Measurer B. W. Koehn.
        0.59-m LONEOS Schmidt + CCD.
    
    Orbital elements:
    2000 LF6
    Epoch 2000 June 5.0 TT = JDT 2451700.5                  Williams
    M   1.39042              (2000.0)            P               Q
    n   0.17938563     Peri.  147.92327     -0.50325041     +0.82359274
    a   3.1137061      Node    90.62738     -0.83778354     -0.39081020
    e   0.6354563      Incl.   15.16589     -0.21179653     -0.41105034
    P   5.49           H   19.3           G   0.15
    From 40 observations 2000 June 3-5.
    
    Ephemeris:
    2000 LF6                 a,e,i = 3.11, 0.64, 15                  q = 1.1351
    Date    TT    R. A. (2000) Decl.     Delta      r     Elong.  Phase     V
    2000 06 05    14 13.03   +22 53.5    0.218    1.139   120.1    50.4    18.1
    2000 06 10    14 29.37   +14 43.4    0.208    1.147   124.8    46.6    18.0
    2000 06 15    14 46.97   +05 37.0    0.205    1.158   129.9    42.3    17.8
    2000 06 20    15 05.55   -03 47.9    0.209    1.172   134.5    38.2    17.8
    2000 06 25    15 24.82   -12 45.3    0.220    1.189   138.0    34.9    17.8
    2000 06 30    15 44.45   -20 38.3    0.239    1.210   140.0    32.7    18.0
    2000 07 05    16 04.16   -27 08.9    0.264    1.233   140.6    31.6    18.2
    2000 07 10    16 23.66   -32 16.9    0.295    1.258   140.2    31.1    18.5
    2000 07 15    16 42.68   -36 11.4    0.331    1.286   139.2    31.1    18.8
    2000 07 20    17 01.01   -39 05.0    0.371    1.315   137.8    31.2    19.1
    2000 07 25    17 18.52   -41 09.4    0.415    1.347   136.3    31.4    19.4
    
    2000 08 04    17 50.99   -43 30.6    0.513    1.414   132.8    31.8    20.0
    2000 08 14    18 20.27   -44 15.5    0.623    1.486   129.0    32.0    20.5
    2000 08 24    18 46.76   -44 01.0    0.744    1.561   125.0    32.1    21.0
    2000 09 03    19 11.03   -43 09.1    0.876    1.639   120.6    32.0    21.4
    2000 09 13    19 33.60   -41 53.6    1.019    1.718   116.0    31.8    21.9
    
    Gareth V. Williams           (C) Copyright 2000 MPC           M.P.E.C. 2000-L27
    

    Read MPEC 2000-L26 Read MPEC 2000-L28


    MPEC number:

    Enter an MPEC number in one of the following forms:

    • 1997-B01 (the full form)
    • J97B01 (the packed version of the full form)
    • B01 (the abbreviated form)